owner,sensor,date,latitude,longitude,vertical_datum,wind_speed,wind_to_direction,wind_speed_of_gust,qcFlag 
NOS,ioos:station:wmo:bzst2:1,2017-09-01T00:00:00Z,26.0670,-97.1550,15.0,6.6,150.0,8.2,'11111222,11111222,11111222' 
NOS,ioos:station:wmo:bzst2:1,2017-09-01T00:06:00Z,26.0670,-97.1550,15.0,7.1,148.0,8.0,'11111222,11111222,11111222' 
NOS,ioos:station:wmo:bzst2:1,2017-09-01T00:12:00Z,26.0670,-97.1550,15.0,7.0,147.0,8.0,'11111222,11111222,11111222' 
NOS,ioos:station:wmo:bzst2:1,2017-09-01T00:18:00Z,26.0670,-97.1550,15.0,6.8,147.0,8.8,'11111222,11111222,11111222' 
NOS,ioos:station:wmo:bzst2:1,2017-09-01T00:24:00Z,26.0670,-97.1550,15.0,7.2,146.0,8.7,'11111222,11111222,11111222' 
NOS,ioos:station:wmo:bzst2:1,2017-09-01T00:30:00Z,26.0670,-97.1550,15.0,7.2,144.0,8.1,'11111222,11111222,11111222' 
NOS,ioos:station:wmo:bzst2:1,2017-09-01T00:36:00Z,26.0670,-97.1550,15.0,7.0,146.0,8.3,'11111222,11111222,11111222' 
NOS,ioos:station:wmo:bzst2:1,2017-09-01T00:42:00Z,26.0670,-97.1550,15.0,7.4,145.0,8.5,'11111222,11111222,11111222' 
NOS,ioos:station:wmo:bzst2:1,2017-09-01T00:48:00Z,26.0670,-97.1550,15.0,6.9,144.0,8.1,'11111222,11111222,11111222' 
NOS,ioos:station:wmo:bzst2:1,2017-09-01T00:54:00Z,26.0670,-97.1550,15.0,7.4,145.0,8.3,'11111222,11111222,11111222' 
NOS,ioos:station:wmo:bzst2:1,2017-09-01T01:00:00Z,26.0670,-97.1550,15.0,7.0,141.0,7.9,'11111222,11111222,11111222' 
NOS,ioos:station:wmo:bzst2:1,2017-09-01T01:06:00Z,26.0670,-97.1550,15.0,7.2,141.0,8.3,'11111222,11111222,11111222' 
NOS,ioos:station:wmo:bzst2:1,2017-09-01T01:12:00Z,26.0670,-97.1550,15.0,6.7,142.0,8.2,'11111222,11111222,11111222' 
NOS,ioos:station:wmo:bzst2:1,2017-09-01T01:18:00Z,26.0670,-97.1550,15.0,6.4,142.0,7.8,'11111222,11111222,11111222' 
NOS,ioos:station:wmo:bzst2:1,2017-09-01T01:24:00Z,26.0670,-97.1550,15.0,6.2,143.0,7.6,'11111222,11111222,11111222' 
NOS,ioos:station:wmo:bzst2:1,2017-09-01T01:30:00Z,26.0670,-97.1550,15.0,6.5,144.0,7.7,'11111222,11111222,11111222' 
NOS,ioos:station:wmo:bzst2:1,2017-09-01T01:36:00Z,26.0670,-97.1550,15.0,6.6,146.0,7.4,'11111222,11111222,11111222' 
NOS,ioos:station:wmo:bzst2:1,2017-09-01T01:42:00Z,26.0670,-97.1550,15.0,6.5,145.0,7.9,'11111222,11111222,11111222' 
NOS,ioos:station:wmo:bzst2:1,2017-09-01T01:48:00Z,26.0670,-97.1550,15.0,6.8,144.0,7.5,'11111222,11111222,11111222' 
NOS,ioos:station:wmo:bzst2:1,2017-09-01T01:54:00Z,26.0670,-97.1550,15.0,6.6,144.0,7.4,'11111222,11111222,11111222' 
NOS,ioos:station:wmo:bzst2:1,2017-09-01T02:00:00Z,26.0670,-97.1550,15.0,6.1,141.0,7.1,'11111222,11111222,11111222' 
NOS,ioos:station:wmo:bzst2:1,2017-09-01T02:06:00Z,26.0670,-97.1550,15.0,6.1,143.0,7.2,'11111222,11111222,11111222' 
NOS,ioos:station:wmo:bzst2:1,2017-09-01T02:12:00Z,26.0670,-97.1550,15.0,6.6,147.0,7.4,'11111222,11111222,11111222' 
NOS,ioos:station:wmo:bzst2:1,2017-09-01T02:18:00Z,26.0670,-97.1550,15.0,6.7,149.0,7.6,'11111222,11111222,11111222' 
NOS,ioos:station:wmo:bzst2:1,2017-09-01T02:24:00Z,26.0670,-97.1550,15.0,6.3,149.0,7.4,'11111222,11111222,11111222' 
NOS,ioos:station:wmo:bzst2:1,2017-09-01T02:30:00Z,26.0670,-97.1550,15.0,6.2,147.0,7.3,'11111222,11111222,11111222' 
NOS,ioos:station:wmo:bzst2:1,2017-09-01T02:36:00Z,26.0670,-97.1550,15.0,5.9,145.0,6.8,'11111222,11111222,11111222' 
NOS,ioos:station:wmo:bzst2:1,2017-09-01T02:42:00Z,26.0670,-97.1550,15.0,6.4,146.0,7.3,'11111222,11111222,11111222' 
NOS,ioos:station:wmo:bzst2:1,2017-09-01T02:48:00Z,26.0670,-97.1550,15.0,6.4,148.0,7.3,'11111222,11111222,11111222' 
NOS,ioos:station:wmo:bzst2:1,2017-09-01T02:54:00Z,26.0670,-97.1550,15.0,6.7,150.0,8.0,'11111222,11111222,11111222' 
NOS,ioos:station:wmo:bzst2:1,2017-09-01T03:00:00Z,26.0670,-97.1550,15.0,6.1,150.0,7.2,'11111222,11111222,11111222' 
NOS,ioos:station:wmo:bzst2:1,2017-09-01T03:06:00Z,26.0670,-97.1550,15.0,6.4,150.0,7.6,'11111222,11111222,11111222' 
NOS,ioos:station:wmo:bzst2:1,2017-09-01T03:12:00Z,26.0670,-97.1550,15.0,6.0,149.0,7.4,'11111222,11111222,11111222' 
NOS,ioos:station:wmo:bzst2:1,2017-09-01T03:18:00Z,26.0670,-97.1550,15.0,5.8,154.0,7.1,'11111222,11111222,11111222' 
NOS,ioos:station:wmo:bzst2:1,2017-09-01T03:24:00Z,26.0670,-97.1550,15.0,6.3,157.0,7.2,'11111222,11111222,11111222' 
NOS,ioos:station:wmo:bzst2:1,2017-09-01T03:30:00Z,26.0670,-97.1550,15.0,5.8,158.0,7.3,'11111222,11111222,11111222' 
NOS,ioos:station:wmo:bzst2:1,2017-09-01T03:36:00Z,26.0670,-97.1550,15.0,5.4,158.0,6.6,'11111222,11111222,11111222' 
NOS,ioos:station:wmo:bzst2:1,2017-09-01T03:42:00Z,26.0670,-97.1550,15.0,5.3,155.0,6.5,'11111222,11111222,11111222' 
NOS,ioos:station:wmo:bzst2:1,2017-09-01T03:48:00Z,26.0670,-97.1550,15.0,5.3,160.0,6.7,'11111222,11111222,11111222' 
NOS,ioos:station:wmo:bzst2:1,2017-09-01T03:54:00Z,26.0670,-97.1550,15.0,5.1,159.0,6.4,'11111222,11111222,11111222' 
NOS,ioos:station:wmo:bzst2:1,2017-09-01T04:00:00Z,26.0670,-97.1550,15.0,5.3,160.0,6.4,'11111222,11111222,11111222' 
NOS,ioos:station:wmo:bzst2:1,2017-09-01T04:06:00Z,26.0670,-97.1550,15.0,4.8,163.0,5.9,'11111222,11111222,11111222' 
NOS,ioos:station:wmo:bzst2:1,2017-09-01T04:12:00Z,26.0670,-97.1550,15.0,4.9,163.0,5.9,'11111222,11111222,11111222' 
NOS,ioos:station:wmo:bzst2:1,2017-09-01T04:18:00Z,26.0670,-97.1550,15.0,5.1,164.0,6.2,'11111222,11111222,11111222' 
NOS,ioos:station:wmo:bzst2:1,2017-09-01T04:24:00Z,26.0670,-97.1550,15.0,5.2,164.0,6.4,'11111222,11111222,11111222' 
NOS,ioos:station:wmo:bzst2:1,2017-09-01T04:30:00Z,26.0670,-97.1550,15.0,5.4,162.0,6.1,'11111222,11111222,11111222' 
NOS,ioos:station:wmo:bzst2:1,2017-09-01T04:36:00Z,26.0670,-97.1550,15.0,5.3,161.0,6.1,'11111222,11111222,11111222' 
NOS,ioos:station:wmo:bzst2:1,2017-09-01T04:42:00Z,26.0670,-97.1550,15.0,4.8,161.0,5.7,'11111222,11111222,11111222' 
NOS,ioos:station:wmo:bzst2:1,2017-09-01T04:48:00Z,26.0670,-97.1550,15.0,4.8,160.0,5.7,'11111222,11111222,11111222' 
NOS,ioos:station:wmo:bzst2:1,2017-09-01T04:54:00Z,26.0670,-97.1550,15.0,4.5,162.0,5.3,'11111222,11111222,11111222' 
NOS,ioos:station:wmo:bzst2:1,2017-09-01T05:00:00Z,26.0670,-97.1550,15.0,4.1,162.0,5.1,'11111222,11111222,11111222' 
NOS,ioos:station:wmo:bzst2:1,2017-09-01T05:06:00Z,26.0670,-97.1550,15.0,3.8,161.0,4.9,'11111222,11111222,11111222' 
NOS,ioos:station:wmo:bzst2:1,2017-09-01T05:12:00Z,26.0670,-97.1550,15.0,4.0,163.0,4.8,'11111222,11111222,11111222' 
NOS,ioos:station:wmo:bzst2:1,2017-09-01T05:18:00Z,26.0670,-97.1550,15.0,4.2,165.0,4.8,'11111222,11111222,11111222' 
NOS,ioos:station:wmo:bzst2:1,2017-09-01T05:24:00Z,26.0670,-97.1550,15.0,4.1,165.0,4.8,'11111222,11111222,11111222' 
NOS,ioos:station:wmo:bzst2:1,2017-09-01T05:30:00Z,26.0670,-97.1550,15.0,3.7,167.0,4.6,'11111222,11111222,11111222' 
NOS,ioos:station:wmo:bzst2:1,2017-09-01T05:36:00Z,26.0670,-97.1550,15.0,3.9,166.0,4.6,'11111222,11111222,11111222' 
NOS,ioos:station:wmo:bzst2:1,2017-09-01T05:42:00Z,26.0670,-97.1550,15.0,3.9,172.0,5.1,'11111222,11111222,11111222' 
NOS,ioos:station:wmo:bzst2:1,2017-09-01T05:48:00Z,26.0670,-97.1550,15.0,3.7,171.0,4.5,'11111222,11111222,11111222' 
NOS,ioos:station:wmo:bzst2:1,2017-09-01T05:54:00Z,26.0670,-97.1550,15.0,3.6,171.0,4.2,'11111222,11111222,11111222' 
NOS,ioos:station:wmo:bzst2:1,2017-09-01T06:00:00Z,26.0670,-97.1550,15.0,3.8,172.0,4.2,'11111222,11111222,11111222' 
NOS,ioos:station:wmo:bzst2:1,2017-09-01T06:06:00Z,26.0670,-97.1550,15.0,3.8,171.0,4.4,'11111222,11111222,11111222' 
NOS,ioos:station:wmo:bzst2:1,2017-09-01T06:12:00Z,26.0670,-97.1550,15.0,3.6,168.0,4.5,'11111222,11111222,11111222' 
NOS,ioos:station:wmo:bzst2:1,2017-09-01T06:18:00Z,26.0670,-97.1550,15.0,2.9,166.0,4.0,'11111222,11111222,11111222' 
NOS,ioos:station:wmo:bzst2:1,2017-09-01T06:24:00Z,26.0670,-97.1550,15.0,3.1,167.0,3.7,'11111222,11111222,11111222' 
NOS,ioos:station:wmo:bzst2:1,2017-09-01T06:30:00Z,26.0670,-97.1550,15.0,3.2,162.0,3.7,'11111222,11111222,11111222' 
NOS,ioos:station:wmo:bzst2:1,2017-09-01T06:36:00Z,26.0670,-97.1550,15.0,3.0,161.0,3.8,'11111222,11111222,11111222' 
NOS,ioos:station:wmo:bzst2:1,2017-09-01T06:42:00Z,26.0670,-97.1550,15.0,2.9,164.0,3.4,'11111222,11111222,11111222' 
NOS,ioos:station:wmo:bzst2:1,2017-09-01T06:48:00Z,26.0670,-97.1550,15.0,2.9,163.0,3.4,'11111222,11111222,11111222' 
NOS,ioos:station:wmo:bzst2:1,2017-09-01T06:54:00Z,26.0670,-97.1550,15.0,3.1,167.0,3.8,'11111222,11111222,11111222' 
NOS,ioos:station:wmo:bzst2:1,2017-09-01T07:00:00Z,26.0670,-97.1550,15.0,2.5,166.0,3.3,'11111222,11111222,11111222' 
NOS,ioos:station:wmo:bzst2:1,2017-09-01T07:06:00Z,26.0670,-97.1550,15.0,2.4,167.0,2.7,'11111222,11111222,11111222' 
NOS,ioos:station:wmo:bzst2:1,2017-09-01T07:12:00Z,26.0670,-97.1550,15.0,2.5,164.0,2.8,'11111222,11111222,11111222' 
NOS,ioos:station:wmo:bzst2:1,2017-09-01T07:18:00Z,26.0670,-97.1550,15.0,2.3,161.0,3.1,'11111222,11111222,11111222' 
NOS,ioos:station:wmo:bzst2:1,2017-09-01T07:24:00Z,26.0670,-97.1550,15.0,2.3,162.0,2.9,'11111222,11111222,11111222' 
NOS,ioos:station:wmo:bzst2:1,2017-09-01T07:30:00Z,26.0670,-97.1550,15.0,2.2,161.0,2.9,'11111222,11111222,11111222' 
NOS,ioos:station:wmo:bzst2:1,2017-09-01T07:36:00Z,26.0670,-97.1550,15.0,2.4,163.0,2.9,'11111222,11111222,11111222' 
NOS,ioos:station:wmo:bzst2:1,2017-09-01T07:42:00Z,26.0670,-97.1550,15.0,2.2,166.0,2.7,'11111222,11111222,11111222' 
NOS,ioos:station:wmo:bzst2:1,2017-09-01T07:48:00Z,26.0670,-97.1550,15.0,2.2,171.0,2.6,'11111222,11111222,11111222' 
NOS,ioos:station:wmo:bzst2:1,2017-09-01T07:54:00Z,26.0670,-97.1550,15.0,2.0,171.0,2.4,'11111222,11111222,11111222' 
NOS,ioos:station:wmo:bzst2:1,2017-09-01T08:00:00Z,26.0670,-97.1550,15.0,1.5,174.0,2.1,'11111222,11111222,11111222' 
NOS,ioos:station:wmo:bzst2:1,2017-09-01T08:06:00Z,26.0670,-97.1550,15.0,1.8,169.0,2.2,'11111222,11111222,11111222' 
NOS,ioos:station:wmo:bzst2:1,2017-09-01T08:12:00Z,26.0670,-97.1550,15.0,2.1,161.0,2.2,'11111222,11111222,11111222' 
NOS,ioos:station:wmo:bzst2:1,2017-09-01T08:18:00Z,26.0670,-97.1550,15.0,1.8,161.0,2.4,'11111222,11111222,11111222' 
NOS,ioos:station:wmo:bzst2:1,2017-09-01T08:24:00Z,26.0670,-97.1550,15.0,1.7,152.0,2.1,'11111222,11111222,11111222' 
NOS,ioos:station:wmo:bzst2:1,2017-09-01T08:30:00Z,26.0670,-97.1550,15.0,1.7,151.0,2.2,'11111222,11111222,11111222' 
NOS,ioos:station:wmo:bzst2:1,2017-09-01T08:36:00Z,26.0670,-97.1550,15.0,1.7,151.0,2.1,'11111222,11111222,11111222' 
NOS,ioos:station:wmo:bzst2:1,2017-09-01T08:42:00Z,26.0670,-97.1550,15.0,1.6,144.0,2.0,'11111222,11111222,11111222' 
NOS,ioos:station:wmo:bzst2:1,2017-09-01T08:48:00Z,26.0670,-97.1550,15.0,1.9,136.0,2.1,'11111222,11111222,11111222' 
NOS,ioos:station:wmo:bzst2:1,2017-09-01T08:54:00Z,26.0670,-97.1550,15.0,1.9,128.0,2.2,'11111222,11111222,11111222' 
NOS,ioos:station:wmo:bzst2:1,2017-09-01T09:00:00Z,26.0670,-97.1550,15.0,1.7,98.0,1.9,'11111222,11111222,11111222' 
NOS,ioos:station:wmo:bzst2:1,2017-09-01T09:06:00Z,26.0670,-97.1550,15.0,2.0,103.0,2.1,'11111222,11111222,11111222' 
NOS,ioos:station:wmo:bzst2:1,2017-09-01T09:12:00Z,26.0670,-97.1550,15.0,1.6,100.0,2.1,'11111222,11111222,11111222' 
NOS,ioos:station:wmo:bzst2:1,2017-09-01T09:18:00Z,26.0670,-97.1550,15.0,1.6,96.0,1.9,'11111222,11111222,11111222' 
NOS,ioos:station:wmo:bzst2:1,2017-09-01T09:24:00Z,26.0670,-97.1550,15.0,1.5,94.0,1.8,'11111222,11111222,11111222' 
NOS,ioos:station:wmo:bzst2:1,2017-09-01T09:30:00Z,26.0670,-97.1550,15.0,1.2,84.0,1.6,'11111222,11111222,11111222' 
NOS,ioos:station:wmo:bzst2:1,2017-09-01T09:36:00Z,26.0670,-97.1550,15.0,1.0,91.0,1.4,'11111222,11111222,11111222' 
NOS,ioos:station:wmo:bzst2:1,2017-09-01T09:42:00Z,26.0670,-97.1550,15.0,0.9,82.0,1.1,'11111222,11111222,11111222' 
NOS,ioos:station:wmo:bzst2:1,2017-09-01T09:48:00Z,26.0670,-97.1550,15.0,0.9,97.0,1.1,'11111222,11111222,11111222' 
NOS,ioos:station:wmo:bzst2:1,2017-09-01T09:54:00Z,26.0670,-97.1550,15.0,0.9,100.0,1.1,'11111222,11111222,11111222' 
NOS,ioos:station:wmo:bzst2:1,2017-09-01T10:00:00Z,26.0670,-97.1550,15.0,1.0,96.0,1.3,'11111222,11111222,11111222' 
NOS,ioos:station:wmo:bzst2:1,2017-09-01T10:06:00Z,26.0670,-97.1550,15.0,0.9,101.0,1.2,'11111222,11111222,11111222' 
NOS,ioos:station:wmo:bzst2:1,2017-09-01T10:12:00Z,26.0670,-97.1550,15.0,0.6,99.0,0.9,'11111222,11111222,11111222' 
NOS,ioos:station:wmo:bzst2:1,2017-09-01T10:18:00Z,26.0670,-97.1550,15.0,0.7,57.0,0.8,'11111222,11111222,11111222' 
NOS,ioos:station:wmo:bzst2:1,2017-09-01T10:24:00Z,26.0670,-97.1550,15.0,1.2,59.0,1.3,'11111222,11111222,11111222' 
NOS,ioos:station:wmo:bzst2:1,2017-09-01T10:30:00Z,26.0670,-97.1550,15.0,1.1,21.0,1.3,'11111222,11111222,11111222' 
NOS,ioos:station:wmo:bzst2:1,2017-09-01T10:36:00Z,26.0670,-97.1550,15.0,1.1,27.0,1.5,'11111222,11111222,11111222' 
NOS,ioos:station:wmo:bzst2:1,2017-09-01T10:42:00Z,26.0670,-97.1550,15.0,0.8,39.0,0.9,'11111222,11111222,11111222' 
NOS,ioos:station:wmo:bzst2:1,2017-09-01T10:48:00Z,26.0670,-97.1550,15.0,0.9,25.0,1.0,'11111222,11111222,11111222' 
NOS,ioos:station:wmo:bzst2:1,2017-09-01T10:54:00Z,26.0670,-97.1550,15.0,1.1,31.0,1.2,'11111222,11111222,11111222' 
NOS,ioos:station:wmo:bzst2:1,2017-09-01T11:00:00Z,26.0670,-97.1550,15.0,0.9,30.0,1.2,'11111222,11111222,11111222' 
NOS,ioos:station:wmo:bzst2:1,2017-09-01T11:06:00Z,26.0670,-97.1550,15.0,1.0,36.0,1.2,'11111222,11111222,11111222' 
NOS,ioos:station:wmo:bzst2:1,2017-09-01T11:12:00Z,26.0670,-97.1550,15.0,0.8,44.0,1.0,'11111222,11111222,11111222' 
NOS,ioos:station:wmo:bzst2:1,2017-09-01T11:18:00Z,26.0670,-97.1550,15.0,1.7,72.0,1.8,'11111222,11111222,11111222' 
NOS,ioos:station:wmo:bzst2:1,2017-09-01T11:24:00Z,26.0670,-97.1550,15.0,1.4,89.0,2.0,'11111222,11111222,11111222' 
NOS,ioos:station:wmo:bzst2:1,2017-09-01T11:30:00Z,26.0670,-97.1550,15.0,1.9,100.0,2.1,'11111222,11111222,11111222' 
NOS,ioos:station:wmo:bzst2:1,2017-09-01T11:36:00Z,26.0670,-97.1550,15.0,2.0,95.0,2.2,'11111222,11111222,11111222' 
NOS,ioos:station:wmo:bzst2:1,2017-09-01T11:42:00Z,26.0670,-97.1550,15.0,1.9,93.0,2.4,'11111222,11111222,11111222' 
NOS,ioos:station:wmo:bzst2:1,2017-09-01T11:48:00Z,26.0670,-97.1550,15.0,2.6,100.0,2.8,'11111222,11111222,11111222' 
NOS,ioos:station:wmo:bzst2:1,2017-09-01T11:54:00Z,26.0670,-97.1550,15.0,2.4,103.0,2.9,'11111222,11111222,11111222' 
NOS,ioos:station:wmo:bzst2:1,2017-09-01T12:00:00Z,26.0670,-97.1550,15.0,2.0,102.0,2.5,'11111222,11111222,11111222' 
NOS,ioos:station:wmo:bzst2:1,2017-09-01T12:06:00Z,26.0670,-97.1550,15.0,2.9,108.0,3.4,'11111222,11111222,11111222' 
NOS,ioos:station:wmo:bzst2:1,2017-09-01T12:12:00Z,26.0670,-97.1550,15.0,4.0,113.0,6.0,'11111222,11111222,11111222' 
NOS,ioos:station:wmo:bzst2:1,2017-09-01T12:18:00Z,26.0670,-97.1550,15.0,6.5,127.0,9.5,'11111222,11111222,11111222' 
NOS,ioos:station:wmo:bzst2:1,2017-09-01T12:24:00Z,26.0670,-97.1550,15.0,5.0,143.0,6.8,'11111222,11111222,11111222' 
NOS,ioos:station:wmo:bzst2:1,2017-09-01T12:30:00Z,26.0670,-97.1550,15.0,3.9,142.0,5.2,'11111222,11111222,11111222' 
NOS,ioos:station:wmo:bzst2:1,2017-09-01T12:36:00Z,26.0670,-97.1550,15.0,3.1,147.0,3.7,'11111222,11111222,11111222' 
NOS,ioos:station:wmo:bzst2:1,2017-09-01T12:42:00Z,26.0670,-97.1550,15.0,3.9,136.0,4.3,'11111222,11111222,11111222' 
NOS,ioos:station:wmo:bzst2:1,2017-09-01T12:48:00Z,26.0670,-97.1550,15.0,4.2,120.0,5.6,'11111222,11111222,11111222' 
NOS,ioos:station:wmo:bzst2:1,2017-09-01T12:54:00Z,26.0670,-97.1550,15.0,3.1,109.0,4.0,'11111222,11111222,11111222' 
NOS,ioos:station:wmo:bzst2:1,2017-09-01T13:00:00Z,26.0670,-97.1550,15.0,2.1,99.0,3.2,'11111222,11111222,11111222' 
NOS,ioos:station:wmo:bzst2:1,2017-09-01T13:06:00Z,26.0670,-97.1550,15.0,2.2,118.0,2.6,'11111222,11111222,11111222' 
NOS,ioos:station:wmo:bzst2:1,2017-09-01T13:12:00Z,26.0670,-97.1550,15.0,2.2,123.0,2.4,'11111222,11111222,11111222' 
NOS,ioos:station:wmo:bzst2:1,2017-09-01T13:18:00Z,26.0670,-97.1550,15.0,2.9,106.0,3.4,'11111222,11111222,11111222' 
NOS,ioos:station:wmo:bzst2:1,2017-09-01T13:24:00Z,26.0670,-97.1550,15.0,2.8,99.0,3.5,'11111222,11111222,11111222' 
NOS,ioos:station:wmo:bzst2:1,2017-09-01T13:30:00Z,26.0670,-97.1550,15.0,2.1,91.0,3.2,'11111222,11111222,11111222' 
NOS,ioos:station:wmo:bzst2:1,2017-09-01T13:36:00Z,26.0670,-97.1550,15.0,2.4,97.0,2.7,'11111222,11111222,11111222' 
NOS,ioos:station:wmo:bzst2:1,2017-09-01T13:42:00Z,26.0670,-97.1550,15.0,2.7,120.0,3.2,'11111222,11111222,11111222' 
NOS,ioos:station:wmo:bzst2:1,2017-09-01T13:48:00Z,26.0670,-97.1550,15.0,2.9,153.0,3.8,'11111222,11111222,11111222' 
NOS,ioos:station:wmo:bzst2:1,2017-09-01T13:54:00Z,26.0670,-97.1550,15.0,2.3,156.0,3.1,'11111222,11111222,11111222' 
NOS,ioos:station:wmo:bzst2:1,2017-09-01T14:00:00Z,26.0670,-97.1550,15.0,2.1,143.0,2.6,'11111222,11111222,11111222' 
NOS,ioos:station:wmo:bzst2:1,2017-09-01T14:06:00Z,26.0670,-97.1550,15.0,1.9,142.0,2.3,'11111222,11111222,11111222' 
NOS,ioos:station:wmo:bzst2:1,2017-09-01T14:12:00Z,26.0670,-97.1550,15.0,1.8,138.0,2.3,'11111222,11111222,11111222' 
NOS,ioos:station:wmo:bzst2:1,2017-09-01T14:18:00Z,26.0670,-97.1550,15.0,1.6,131.0,2.1,'11111222,11111222,11111222' 
NOS,ioos:station:wmo:bzst2:1,2017-09-01T14:24:00Z,26.0670,-97.1550,15.0,2.1,131.0,2.6,'11111222,11111222,11111222' 
NOS,ioos:station:wmo:bzst2:1,2017-09-01T14:30:00Z,26.0670,-97.1550,15.0,2.2,128.0,2.6,'11111222,11111222,11111222' 
NOS,ioos:station:wmo:bzst2:1,2017-09-01T14:36:00Z,26.0670,-97.1550,15.0,2.3,124.0,2.5,'11111222,11111222,11111222' 
NOS,ioos:station:wmo:bzst2:1,2017-09-01T14:42:00Z,26.0670,-97.1550,15.0,1.8,125.0,2.7,'11111222,11111222,11111222' 
NOS,ioos:station:wmo:bzst2:1,2017-09-01T14:48:00Z,26.0670,-97.1550,15.0,2.5,120.0,3.1,'11111222,11111222,11111222' 
NOS,ioos:station:wmo:bzst2:1,2017-09-01T14:54:00Z,26.0670,-97.1550,15.0,2.4,109.0,2.9,'11111222,11111222,11111222' 
NOS,ioos:station:wmo:bzst2:1,2017-09-01T15:00:00Z,26.0670,-97.1550,15.0,2.8,108.0,3.2,'11111222,11111222,11111222' 
NOS,ioos:station:wmo:bzst2:1,2017-09-01T15:06:00Z,26.0670,-97.1550,15.0,2.6,107.0,3.3,'11111222,11111222,11111222' 
NOS,ioos:station:wmo:bzst2:1,2017-09-01T15:12:00Z,26.0670,-97.1550,15.0,2.5,105.0,2.8,'11111222,11111222,11111222' 
NOS,ioos:station:wmo:bzst2:1,2017-09-01T15:18:00Z,26.0670,-97.1550,15.0,2.4,101.0,2.8,'11111222,11111222,11111222' 
NOS,ioos:station:wmo:bzst2:1,2017-09-01T15:24:00Z,26.0670,-97.1550,15.0,2.5,97.0,2.8,'11111222,11111222,11111222' 
NOS,ioos:station:wmo:bzst2:1,2017-09-01T15:30:00Z,26.0670,-97.1550,15.0,2.3,92.0,2.9,'11111222,11111222,11111222' 
NOS,ioos:station:wmo:bzst2:1,2017-09-01T15:36:00Z,26.0670,-97.1550,15.0,2.5,90.0,2.8,'11111222,11111222,11111222' 
NOS,ioos:station:wmo:bzst2:1,2017-09-01T15:42:00Z,26.0670,-97.1550,15.0,2.9,84.0,3.4,'11111222,11111222,11111222' 
NOS,ioos:station:wmo:bzst2:1,2017-09-01T15:48:00Z,26.0670,-97.1550,15.0,3.6,79.0,3.8,'11111222,11111222,11111222' 
NOS,ioos:station:wmo:bzst2:1,2017-09-01T15:54:00Z,26.0670,-97.1550,15.0,3.6,77.0,4.0,'11111222,11111222,11111222' 
NOS,ioos:station:wmo:bzst2:1,2017-09-01T16:00:00Z,26.0670,-97.1550,15.0,3.9,79.0,4.3,'11111222,11111222,11111222' 
NOS,ioos:station:wmo:bzst2:1,2017-09-01T16:06:00Z,26.0670,-97.1550,15.0,3.9,79.0,4.2,'11111222,11111222,11111222' 
NOS,ioos:station:wmo:bzst2:1,2017-09-01T16:12:00Z,26.0670,-97.1550,15.0,3.5,82.0,4.2,'11111222,11111222,11111222' 
NOS,ioos:station:wmo:bzst2:1,2017-09-01T16:18:00Z,26.0670,-97.1550,15.0,3.4,85.0,3.9,'11111222,11111222,11111222' 
NOS,ioos:station:wmo:bzst2:1,2017-09-01T16:24:00Z,26.0670,-97.1550,15.0,3.3,84.0,3.7,'11111222,11111222,11111222' 
NOS,ioos:station:wmo:bzst2:1,2017-09-01T16:30:00Z,26.0670,-97.1550,15.0,3.7,78.0,4.2,'11111222,11111222,11111222' 
NOS,ioos:station:wmo:bzst2:1,2017-09-01T16:36:00Z,26.0670,-97.1550,15.0,4.2,78.0,4.5,'11111222,11111222,11111222' 
NOS,ioos:station:wmo:bzst2:1,2017-09-01T16:42:00Z,26.0670,-97.1550,15.0,3.7,82.0,4.1,'11111222,11111222,11111222' 
NOS,ioos:station:wmo:bzst2:1,2017-09-01T16:48:00Z,26.0670,-97.1550,15.0,3.6,82.0,4.1,'11111222,11111222,11111222' 
NOS,ioos:station:wmo:bzst2:1,2017-09-01T16:54:00Z,26.0670,-97.1550,15.0,3.8,82.0,4.3,'11111222,11111222,11111222' 
NOS,ioos:station:wmo:bzst2:1,2017-09-01T17:00:00Z,26.0670,-97.1550,15.0,4.3,80.0,4.8,'11111222,11111222,11111222' 
NOS,ioos:station:wmo:bzst2:1,2017-09-01T17:06:00Z,26.0670,-97.1550,15.0,4.8,78.0,5.0,'11111222,11111222,11111222' 
NOS,ioos:station:wmo:bzst2:1,2017-09-01T17:12:00Z,26.0670,-97.1550,15.0,4.6,82.0,5.0,'11111222,11111222,11111222' 
NOS,ioos:station:wmo:bzst2:1,2017-09-01T17:18:00Z,26.0670,-97.1550,15.0,4.6,82.0,5.1,'11111222,11111222,11111222' 
NOS,ioos:station:wmo:bzst2:1,2017-09-01T17:24:00Z,26.0670,-97.1550,15.0,4.9,82.0,5.3,'11111222,11111222,11111222' 
NOS,ioos:station:wmo:bzst2:1,2017-09-01T17:30:00Z,26.0670,-97.1550,15.0,4.7,81.0,5.3,'11111222,11111222,11111222' 
NOS,ioos:station:wmo:bzst2:1,2017-09-01T17:36:00Z,26.0670,-97.1550,15.0,5.2,76.0,5.4,'11111222,11111222,11111222' 
NOS,ioos:station:wmo:bzst2:1,2017-09-01T17:42:00Z,26.0670,-97.1550,15.0,4.6,79.0,5.4,'11111222,11111222,11111222' 
NOS,ioos:station:wmo:bzst2:1,2017-09-01T17:48:00Z,26.0670,-97.1550,15.0,4.8,79.0,5.3,'11111222,11111222,11111222' 
NOS,ioos:station:wmo:bzst2:1,2017-09-01T17:54:00Z,26.0670,-97.1550,15.0,5.0,78.0,5.6,'11111222,11111222,11111222' 
NOS,ioos:station:wmo:bzst2:1,2017-09-01T18:00:00Z,26.0670,-97.1550,15.0,4.7,84.0,5.3,'11111222,11111222,11111222' 
NOS,ioos:station:wmo:bzst2:1,2017-09-01T18:06:00Z,26.0670,-97.1550,15.0,4.8,86.0,5.3,'11111222,11111222,11111222' 
NOS,ioos:station:wmo:bzst2:1,2017-09-01T18:12:00Z,26.0670,-97.1550,15.0,5.0,85.0,5.6,'11111222,11111222,11111222' 
NOS,ioos:station:wmo:bzst2:1,2017-09-01T18:18:00Z,26.0670,-97.1550,15.0,5.2,86.0,5.8,'11111222,11111222,11111222' 
NOS,ioos:station:wmo:bzst2:1,2017-09-01T18:24:00Z,26.0670,-97.1550,15.0,5.0,86.0,5.7,'11111222,11111222,11111222' 
NOS,ioos:station:wmo:bzst2:1,2017-09-01T18:30:00Z,26.0670,-97.1550,15.0,4.8,88.0,5.4,'11111222,11111222,11111222' 
NOS,ioos:station:wmo:bzst2:1,2017-09-01T18:36:00Z,26.0670,-97.1550,15.0,5.4,83.0,5.9,'11111222,11111222,11111222' 
NOS,ioos:station:wmo:bzst2:1,2017-09-01T18:42:00Z,26.0670,-97.1550,15.0,5.8,81.0,6.2,'11111222,11111222,11111222' 
NOS,ioos:station:wmo:bzst2:1,2017-09-01T18:48:00Z,26.0670,-97.1550,15.0,5.0,86.0,5.9,'11111222,11111222,11111222' 
NOS,ioos:station:wmo:bzst2:1,2017-09-01T18:54:00Z,26.0670,-97.1550,15.0,5.0,86.0,5.5,'11111222,11111222,11111222' 
NOS,ioos:station:wmo:bzst2:1,2017-09-01T19:00:00Z,26.0670,-97.1550,15.0,4.9,92.0,5.4,'11111222,11111222,11111222' 
NOS,ioos:station:wmo:bzst2:1,2017-09-01T19:06:00Z,26.0670,-97.1550,15.0,5.4,95.0,6.2,'11111222,11111222,11111222' 
NOS,ioos:station:wmo:bzst2:1,2017-09-01T19:12:00Z,26.0670,-97.1550,15.0,6.4,100.0,7.3,'11111222,11111222,11111222' 
NOS,ioos:station:wmo:bzst2:1,2017-09-01T19:18:00Z,26.0670,-97.1550,15.0,6.3,102.0,7.5,'11111222,11111222,11111222' 
NOS,ioos:station:wmo:bzst2:1,2017-09-01T19:24:00Z,26.0670,-97.1550,15.0,6.9,102.0,7.8,'11111222,11111222,11111222' 
NOS,ioos:station:wmo:bzst2:1,2017-09-01T19:30:00Z,26.0670,-97.1550,15.0,6.4,99.0,8.0,'11111222,11111222,11111222' 
NOS,ioos:station:wmo:bzst2:1,2017-09-01T19:36:00Z,26.0670,-97.1550,15.0,6.9,99.0,7.9,'11111222,11111222,11111222' 
NOS,ioos:station:wmo:bzst2:1,2017-09-01T19:42:00Z,26.0670,-97.1550,15.0,5.9,96.0,7.5,'11111222,11111222,11111222' 
NOS,ioos:station:wmo:bzst2:1,2017-09-01T19:48:00Z,26.0670,-97.1550,15.0,7.5,98.0,8.3,'11111222,11111222,11111222' 
NOS,ioos:station:wmo:bzst2:1,2017-09-01T19:54:00Z,26.0670,-97.1550,15.0,6.5,102.0,8.3,'11111222,11111222,11111222' 
NOS,ioos:station:wmo:bzst2:1,2017-09-01T20:00:00Z,26.0670,-97.1550,15.0,6.9,102.0,8.0,'11111222,11111222,11111222' 
NOS,ioos:station:wmo:bzst2:1,2017-09-01T20:06:00Z,26.0670,-97.1550,15.0,7.2,100.0,8.2,'11111222,11111222,11111222' 
NOS,ioos:station:wmo:bzst2:1,2017-09-01T20:12:00Z,26.0670,-97.1550,15.0,6.9,98.0,8.2,'11111222,11111222,11111222' 
NOS,ioos:station:wmo:bzst2:1,2017-09-01T20:18:00Z,26.0670,-97.1550,15.0,7.1,99.0,8.1,'11111222,11111222,11111222' 
NOS,ioos:station:wmo:bzst2:1,2017-09-01T20:24:00Z,26.0670,-97.1550,15.0,6.7,101.0,8.2,'11111222,11111222,11111222' 
NOS,ioos:station:wmo:bzst2:1,2017-09-01T20:30:00Z,26.0670,-97.1550,15.0,6.5,105.0,7.4,'11111222,11111222,11111222' 